Meteo pe oră la Dachnyy

Astăzi, 15 Aprilie, Joi

Timp Temperatura Precipitaţii Vânt Presiune Umiditate
00:00 +10°C° 0 mm 2 m/s 751 mmHg 73%
01:00 +10°C° 0 mm 2 m/s 751 mmHg 74%
02:00 +9°C° 0 mm 2 m/s 751 mmHg 76%
03:00 +9°C° 0 mm 2 m/s 751 mmHg 77%
04:00 +9°C° 0 mm 2 m/s 751 mmHg 77%
05:00 +8°C° 0 mm 2 m/s 751 mmHg 77%
06:00 +8°C° 0 mm 2 m/s 751 mmHg 77%
07:00 +12°C° 0 mm 2 m/s 751 mmHg 69%
08:00 +14°C° 0 mm 2 m/s 751 mmHg 60%
09:00 +16°C° 0 mm 3 m/s 750 mmHg 52%
10:00 +18°C° 0 mm 3 m/s 750 mmHg 46%
11:00 +19°C° 0 mm 3 m/s 750 mmHg 40%
12:00 +21°C° 0 mm 3 m/s 750 mmHg 34%
13:00 +21°C° 0 mm 3 m/s 750 mmHg 33%
14:00 +22°C° 0 mm 3 m/s 749 mmHg 32%
15:00 +22°C° 0 mm 3 m/s 749 mmHg 31%
16:00 +21°C° 0 mm 3 m/s 749 mmHg 36%
17:00 +20°C° 0 mm 2 m/s 749 mmHg 41%
18:00 +19°C° 0 mm 2 m/s 749 mmHg 46%
19:00 +18°C° 0 mm 2 m/s 749 mmHg 50%
20:00 +16°C° 0 mm 2 m/s 749 mmHg 54%
21:00 +15°C° 0 mm 2 m/s 749 mmHg 58%
22:00 +14°C° 0 mm 2 m/s 749 mmHg 61%
23:00 +14°C° 0 mm 2 m/s 749 mmHg 63%

Mâine, 16 Aprilie, Vineri

Timp Temperatura Precipitaţii Vânt Presiune Umiditate
00:00 +13°C° 0 mm 2 m/s 749 mmHg 65%
01:00 +13°C° 0 mm 2 m/s 749 mmHg 65%
02:00 +12°C° 0 mm 2 m/s 749 mmHg 66%
03:00 +12°C° 0 mm 2 m/s 749 mmHg 67%
04:00 +10°C° 0 mm 2 m/s 749 mmHg 66%
05:00 +10°C° 0 mm 2 m/s 749 mmHg 66%
06:00 +10°C° 0 mm 2 m/s 750 mmHg 65%
07:00 +13°C° 0 mm 2 m/s 750 mmHg 59%
08:00 +13°C° 0 mm 3 m/s 750 mmHg 53%
09:00 +16°C° 0 mm 3 m/s 750 mmHg 47%
10:00 +17°C° 0 mm 3 m/s 750 mmHg 43%
11:00 +18°C° 0 mm 3 m/s 750 mmHg 39%
12:00 +20°C° 0 mm 4 m/s 750 mmHg 36%
13:00 +20°C° 0 mm 3 m/s 750 mmHg 34%
14:00 +21°C° 0 mm 3 m/s 750 mmHg 32%
15:00 +21°C° 0 mm 3 m/s 750 mmHg 31%
16:00 +20°C° 0 mm 3 m/s 750 mmHg 35%
17:00 +19°C° 0 mm 2 m/s 750 mmHg 40%
18:00 +18°C° 0 mm 2 m/s 750 mmHg 44%
19:00 +17°C° 0 mm 3 m/s 750 mmHg 52%
20:00 +14°C° 0 mm 3 m/s 751 mmHg 60%
21:00 +13°C° 0 mm 4 m/s 751 mmHg 68%
22:00 +12°C° 0 mm 3 m/s 751 mmHg 73%
23:00 +11°C° 0 mm 3 m/s 751 mmHg 79%

Poimâine, 17 Aprilie, Sâmbătă

Timp Temperatura Precipitaţii Vânt Presiune Umiditate
00:00 +10°C° 0 mm 3 m/s 751 mmHg 84%
01:00 +10°C° 0 mm 3 m/s 751 mmHg 86%
02:00 +9°C° 0 mm 3 m/s 751 mmHg 88%
03:00 +8°C° 0 mm 3 m/s 751 mmHg 90%
04:00 +8°C° 0 mm 3 m/s 752 mmHg 90%
05:00 +8°C° 0 mm 3 m/s 752 mmHg 90%
06:00 +8°C° 0 mm 3 m/s 752 mmHg 90%
07:00 +10°C° 0 mm 4 m/s 752 mmHg 82%
08:00 +12°C° 0 mm 4 m/s 752 mmHg 73%
09:00 +14°C° 0 mm 5 m/s 752 mmHg 64%
10:00 +15°C° 0 mm 5 m/s 752 mmHg 58%
11:00 +16°C° 0 mm 5 m/s 751 mmHg 52%
12:00 +19°C° 0 mm 6 m/s 751 mmHg 46%
13:00 +19°C° 0 mm 5 m/s 751 mmHg 44%
14:00 +19°C° 0 mm 5 m/s 751 mmHg 42%
15:00 +19°C° 0 mm 5 m/s 751 mmHg 39%
16:00 +17°C° 0 mm 6 m/s 751 mmHg 45%
17:00 +16°C° 0 mm 6 m/s 751 mmHg 51%
18:00 +15°C° 0 mm 6 m/s 751 mmHg 57%
19:00 +13°C° 0 mm 6 m/s 751 mmHg 59%
20:00 +11°C° 0 mm 6 m/s 752 mmHg 60%
21:00 +9°C° 0 mm 6 m/s 752 mmHg 61%
22:00 +8°C° 0 mm 6 m/s 752 mmHg 60%
23:00 +8°C° 0 mm 5 m/s 752 mmHg 59%

18 Aprilie, Duminică

Timp Temperatura Precipitaţii Vânt Presiune Umiditate
00:00 +7°C° 0 mm 5 m/s 752 mmHg 58%
01:00 +6°C° 0 mm 5 m/s 752 mmHg 58%
02:00 +6°C° 0 mm 5 m/s 752 mmHg 58%
03:00 +5°C° 0 mm 5 m/s 752 mmHg 58%
04:00 +5°C° 0 mm 5 m/s 753 mmHg 60%
05:00 +5°C° 0 mm 5 m/s 753 mmHg 62%
06:00 +4°C° 0 mm 4 m/s 753 mmHg 63%
07:00 +6°C° 0 mm 5 m/s 753 mmHg 57%
08:00 +7°C° 0 mm 5 m/s 753 mmHg 52%
09:00 +9°C° 0 mm 6 m/s 753 mmHg 46%
10:00 +10°C° 0 mm 6 m/s 754 mmHg 43%
11:00 +11°C° 0 mm 6 m/s 754 mmHg 40%
12:00 +13°C° 0 mm 5 m/s 754 mmHg 37%
13:00 +13°C° 0 mm 5 m/s 754 mmHg 36%
14:00 +13°C° 0 mm 6 m/s 754 mmHg 35%
15:00 +14°C° 0 mm 6 m/s 754 mmHg 34%
16:00 +13°C° 0 mm 5 m/s 754 mmHg 37%
17:00 +12°C° 0 mm 5 m/s 755 mmHg 41%
18:00 +12°C° 0 mm 4 m/s 755 mmHg 44%
19:00 +11°C° 0 mm 4 m/s 755 mmHg 49%
20:00 +9°C° 0 mm 3 m/s 756 mmHg 55%
21:00 +8°C° 0 mm 2 m/s 756 mmHg 61%
22:00 +7°C° 0 mm 3 m/s 757 mmHg 64%
23:00 +5°C° 0 mm 4 m/s 757 mmHg 67%

19 Aprilie, Luni

Timp Temperatura Precipitaţii Vânt Presiune Umiditate
00:00 +5°C° 0 mm 5 m/s 758 mmHg 71%
01:00 +4°C° 0 mm 4 m/s 758 mmHg 71%
02:00 +3°C° 0 mm 4 m/s 759 mmHg 72%
03:00 +1°C° 0 mm 4 m/s 759 mmHg 72%
04:00 +1°C° 0 mm 4 m/s 760 mmHg 71%
05:00 +1°C° 0 mm 4 m/s 760 mmHg 69%
06:00 0°C° 0 mm 4 m/s 760 mmHg 68%
07:00 +3°C° 0 mm 4 m/s 761 mmHg 57%
08:00 +3°C° 0 mm 5 m/s 761 mmHg 47%
09:00 +5°C° 0 mm 5 m/s 761 mmHg 36%
10:00 +5°C° 0 mm 5 m/s 761 mmHg 35%
11:00 +6°C° 0 mm 5 m/s 761 mmHg 34%
12:00 +7°C° 0 mm 5 m/s 761 mmHg 33%
13:00 +7°C° 0 mm 5 m/s 761 mmHg 32%
14:00 +8°C° 0 mm 5 m/s 761 mmHg 31%
15:00 +8°C° 0 mm 5 m/s 761 mmHg 30%
16:00 +7°C° 0 mm 5 m/s 761 mmHg 32%
17:00 +7°C° 0 mm 4 m/s 761 mmHg 35%
18:00 +6°C° 0 mm 4 m/s 761 mmHg 37%
19:00 +5°C° 0 mm 4 m/s 761 mmHg 41%
20:00 +4°C° 0 mm 4 m/s 762 mmHg 44%
21:00 +3°C° 0 mm 3 m/s 762 mmHg 48%
22:00 +2°C° 0 mm 3 m/s 762 mmHg 50%
23:00 +2°C° 0 mm 3 m/s 762 mmHg 52%

20 Aprilie, Marţi

Timp Temperatura Precipitaţii Vânt Presiune Umiditate
00:00 +1°C° 0 mm 3 m/s 762 mmHg 54%
01:00 0°C° 0 mm 4 m/s 762 mmHg 54%
02:00 0°C° 0 mm 4 m/s 762 mmHg 54%
03:00 -1°C° 0 mm 4 m/s 762 mmHg 54%
04:00 -1°C° 0 mm 4 m/s 762 mmHg 53%
05:00 -1°C° 0 mm 4 m/s 762 mmHg 52%
06:00 -1°C° 0 mm 5 m/s 762 mmHg 51%
07:00 +1°C° 0 mm 5 m/s 762 mmHg 47%
08:00 +2°C° 0 mm 6 m/s 762 mmHg 42%
09:00 +4°C° 0 mm 7 m/s 762 mmHg 37%
10:00 +5°C° 0 mm 7 m/s 761 mmHg 35%
11:00 +6°C° 0 mm 8 m/s 761 mmHg 33%
12:00 +7°C° 0 mm 8 m/s 761 mmHg 32%
13:00 +9°C° 0 mm 8 m/s 760 mmHg 31%
14:00 +9°C° 0 mm 8 m/s 760 mmHg 30%
15:00 +9°C° 0 mm 8 m/s 760 mmHg 30%
16:00 +7°C° 0 mm 8 m/s 760 mmHg 33%
17:00 +8°C° 0 mm 7 m/s 759 mmHg 35%
18:00 +6°C° 0 mm 7 m/s 759 mmHg 38%
19:00 +5°C° 0 mm 7 m/s 759 mmHg 40%
20:00 +5°C° 0 mm 7 m/s 759 mmHg 41%
21:00 +4°C° 0 mm 7 m/s 759 mmHg 43%
22:00 +4°C° 0 mm 7 m/s 759 mmHg 44%
23:00 +3°C° 0 mm 7 m/s 759 mmHg 45%
Arată mai mult

Formular de consimțământ

Meteoprog și furnizorii noștri de servicii pot stoca și accesa date personale, precum cookies, identificatori de dispozitiv sau alte tehnologii similare pe dispozitivul dumneavoastră și procesa astfel de date pentru a personaliza conținutul și reclamele, dar și pentru a oferi caracteristici de social media și pentru a analiza traficul.

  • Stocarea și/sau accesarea informațiilor pe dispozitivul dumneavoastră

    Cookies, identificatori de dispozitiv sau alte informații pot fi stocate sau accesate pe dispozitiv în scopurile indicate mai sus.

  • Reclame și conținut personalizat, evaluarea reclamelor și a conținutului, informații despre audiențe și dezvoltarea produselor

    Reclamele și conținutul pot fi personalizate pe baza unui profil. Pot fi adăugate date suplimentare pentru a personaliza mai bine reclamele și conținutul. Performanța reclamelor și conținutului poate fi măsurată. Pot fi obținute informații despre utilizatorii care au văzut reclamele și conținutul. Aceste date pot fi utilizate pentru a dezvolta sau îmbunătăți experiența utilizatorilor, sistemele și software-ul.

Dând clic pe ‘Sunt de acord’, permiteți utilizarea cookie-urilor menționate, a identificatorilor de dispozitiv, balizelor web sau altor tehnologii similare. Setările pot fi modificate din browser-ul dispozitivului dumneavoastră.

În anumite scopuri, interesele legitime pot prima asupra consimțământului. Puteți citi mai multe informații în acest sens în Politica privind Confidențialitatea Datelor și Cookie.